Hourly Data Report for September 10, 2016

All times are specified in Local Standard Time (LST). Add 1 hour to adjust for Daylight Saving Time where and when it is observed.

CHARLOTTETOWN A
PRINCE EDWARD ISLAND

46°17'21.000" N
63°07'09.000" W
48.50 m
8300301
71706
YYG

Download Data

Hourly Data (September 2016)
Hourly Data Report for September 10, 2016
Temp Definition
°C
Dew Point Temp Definition
°C
Rel Hum Definition
%
Wind Dir Definition
10's deg

Wind Spd Definition
km/h
Visibility Definition
km
Stn Press Definition
kPa
Hmdx Definition


Wind Chill Definition


Weather Definition


TIME
00:00 Legend Double Dagger 17.8 15.3 85 28 11 24.1 100.63     LegendNANA
01:00 Legend Double Dagger 16.4 14.3 87 27 9 24.1 100.66     LegendNANA
02:00 Legend Double Dagger 17.2 14.5 84 30 10 24.1 100.69     Clear
03:00 Legend Double Dagger 17.3 14.4 83 29 10 24.1 100.74     LegendNANA
04:00 Legend Double Dagger 15.5 13.9 90 31 8 24.1 100.81     LegendNANA
05:00 Legend Double Dagger 15.6 14.2 91 31 8 24.1 100.89     Mostly Cloudy
06:00 Legend Double Dagger 15.1 14.0 93 31 7 24.1 100.96     LegendNANA
07:00 Legend Double Dagger 17.0 15.9 93 30 5 24.1 101.00     LegendNANA
08:00 Legend Double Dagger 18.6 16.4 87 33 7 24.1 101.07     Mainly Clear
09:00 Legend Double Dagger 19.8 15.5 76 35 16 24.1 101.19     LegendNANA
10:00 Legend Double Dagger 20.3 15.6 74 36 12 24.1 101.25 25   LegendNANA
11:00 Legend Double Dagger 19.9 15.8 77 3 16 24.1 101.32     Mostly Cloudy
12:00 Legend Double Dagger 20.0 16.1 78 4 18 24.1 101.36 25   LegendNANA
13:00 Legend Double Dagger 19.2 15.3 78 6 22 24.1 101.39     LegendNANA
14:00 Legend Double Dagger 19.2 14.7 75 4 13 24.1 101.43     Mostly Cloudy
15:00 Legend Double Dagger 19.0 14.3 74 2 14 24.1 101.44     LegendNANA
16:00 Legend Double Dagger 18.2 14.0 76 2 16 24.1 101.50     LegendNANA
17:00 Legend Double Dagger 17.5 13.5 77 4 14 24.1 101.54     Mostly Cloudy
18:00 Legend Double Dagger 16.9 12.9 77 5 10 24.1 101.54     LegendNANA
19:00 Legend Double Dagger 14.8 12.5 86 9 4 24.1 101.53     LegendNANA
20:00 Legend Double Dagger 15.1 13.0 87 10 9 24.1 101.58     Mainly Clear
21:00 Legend Double Dagger 15.3 13.5 89 12 12 24.1 101.50     LegendNANA
22:00 Legend Double Dagger 14.6 13.2 91 14 10 24.1 101.49     LegendNANA
23:00 Legend Double Dagger 14.2 12.9 92 13 10 24.1 101.44     Mainly Clear

Notes on Data Quality.

Legend

  • E = Estimated
  • M = Missing
  • NA = Not Available
  • ‡ = Partner data that is not subject to review by the National Climate Archives
Date modified: